Location: Newark
(35.5300°N, 14.3000°E)
Time: 19:51:13
(UTC+00:00)

Transit 4A - Pass Details

Date: 25 November 2019
Orbit: 872 x 973 km, 66.8° (Epoch: 28 January)

Event Time Altitude Azimuth Distance (km) Brightness Sun altitude
Exits shadow 02:48:13 - 14° (NNE) 2,755 10.5 -36.1°
Reaches altitude 10° 02:50:08 10° 32° (NNE) 2,539 10.5 -35.8°
Maximum altitude 02:51:06 10° 41° (NE) 2,508 10.5 -35.6°
Drops below altitude 10° 02:52:03 10° 51° (NE) 2,531 10.7 -35.4°
Sets 02:57:20 0° 91° (E) 3,455 11.9 -34.3°
